CW6391 Weather Reports


Display with metric or nautical units.
time (UTC)temp
F
wind
direction
speed
MPH
gust
MPH
rain 1hr
in
rain 24hr
in
rain mn
in
humidity
%
barometer
mb
20260903065607 64 142 0.0 2.0 0.00 0.00 0.00 63 1021.3
20260903065110 63 156 0.0 3.0 0.00 0.00 0.00 64 1021.3
20260903064608 62 95 1.0 3.0 0.00 0.00 0.00 64 1021.3
20260903064107 63 92 1.0 3.0 0.00 0.00 0.00 64 1021.3
20260903063611 63 118 1.0 3.0 0.00 0.00 0.00 64 1021.3
20260903063107 61 131 1.0 3.0 0.00 0.00 0.00 68 1021.3
20260903062607 61 5 1.0 3.0 0.00 0.00 0.00 67 1021.3
20260903062107 61 128 1.0 1.0 0.00 0.00 0.00 66 1021.3
20260903061607 59 98 0.0 3.0 0.00 0.00 0.00 71 1021.3
20260903061107 58 12 1.0 2.0 0.00 0.00 0.00 73 1021.3
20260903060611 58 3 1.0 2.0 0.00 0.00 0.00 73 1021.3
20260903060107 58 287 0.0 1.0 0.00 0.00 0.00 73 1021.3
20260903055607 58 17 0.0 1.0 0.00 0.00 0.00 73 1021.3
20260903055110 57 116 0.0 2.0 0.00 0.00 0.00 75 1021.3
20260903054607 56 62 0.0 2.0 0.00 0.00 0.00 78 1021.3
20260903054107 56 353 0.0 2.0 0.00 0.00 0.00 78 1020.9
20260903053616 56 10 0.0 2.0 0.00 0.00 0.00 77 1020.9
20260903053107 56 104 0.0 2.0 0.00 0.00 0.00 79 1020.9
20260903052610 56 88 0.0 2.0 0.00 0.00 0.00 80 1020.5
20260903052107 55 98 0.0 2.0 0.00 0.00 0.00 81 1020.5
20260903051610 55 135 0.0 2.0 0.00 0.00 0.00 82 1020.5
20260903051107 54 172 1.0 3.0 0.00 0.00 0.00 82 1020.5
20260903050610 54 153 2.0 11.0 0.00 0.00 0.00 82 1020.5
20260903050107 54 165 2.0 11.0 0.00 0.00 0.00 83 1020.5
20260903045611 54 125 1.0 2.0 0.00 0.00 0.00 83 1020.5
20260903045107 54 155 1.0 2.0 0.00 0.00 0.00 84 1020.5
20260903044607 54 147 1.0 2.0 0.00 0.00 0.00 84 1020.5
20260903044107 54 160 0.0 1.0 0.00 0.00 0.00 84 1020.5
20260903043610 54 181 1.0 2.0 0.00 0.00 0.00 84 1020.5
20260903043113 54 181 1.0 2.0 0.00 0.00 0.00 85 1020.5
20260903042613 54 324 0.0 2.0 0.00 0.00 0.00 85 1020.5
20260903042113 54 140 1.0 1.0 0.00 0.00 0.00 85 1020.5
20260903041607 54 105 0.0 1.0 0.00 0.00 0.00 85 1020.5
20260903041110 55 97 0.0 2.0 0.00 0.00 0.00 85 1020.5
20260903040613 55 93 1.0 3.0 0.00 0.00 0.00 85 1020.5
20260903040107 55 73 2.0 3.0 0.00 0.00 0.00 85 1020.5
20260903035607 55 74 0.0 2.0 0.00 0.00 0.00 85 1020.5
20260903035107 55 206 0.0 1.0 0.00 0.00 0.00 84 1020.5
20260903034610 55 263 0.0 1.0 0.00 0.00 0.00 84 1020.5
20260903034107 55 298 0.0 1.0 0.00 0.00 0.00 84 1020.9
20260903033611 55 318 0.0 1.0 0.00 0.00 0.00 84 1020.5
20260903033110 55 286 0.0 1.0 0.00 0.00 0.00 84 1020.5
20260903032607 55 292 0.0 1.0 0.00 0.00 0.00 84 1020.5
20260903032111 55 311 0.0 1.0 0.00 0.00 0.00 83 1020.5
20260903031614 55 311 0.0 1.0 0.00 0.00 0.00 83 1020.5
20260903031107 55 216 0.0 1.0 0.00 0.00 0.00 83 1020.5
20260903030611 55 226 0.0 1.0 0.00 0.00 0.00 83 1020.5
20260903030108 55 297 0.0 1.0 0.00 0.00 0.00 83 1020.5
20260903025607 55 326 0.0 1.0 0.00 0.00 0.00 83 1020.5
20260903025108 56 304 0.0 1.0 0.00 0.00 0.00 83 1020.5
20260903024611 56 274 0.0 1.0 0.00 0.00 0.00 83 1020.5
20260903024107 56 319 0.0 1.0 0.00 0.00 0.00 83 1020.5
20260903023607 56 322 0.0 1.0 0.00 0.00 0.00 83 1020.5
20260903023107 56 319 0.0 1.0 0.00 0.00 0.00 83 1020.5
20260903022610 56 298 1.0 2.0 0.00 0.00 0.00 84 1020.5
20260903022107 56 306 0.0 1.0 0.00 0.00 0.00 83 1020.5
20260903021607 56 322 0.0 1.0 0.00 0.00 0.00 83 1020.5
20260903021110 56 353 0.0 1.0 0.00 0.00 0.00 83 1020.5
20260903020613 56 316 0.0 1.0 0.00 0.00 0.00 83 1020.5
20260903020110 56 320 0.0 1.0 0.00 0.00 0.00 83 1020.5
20260903015610 56 33 0.0 0.0 0.00 0.00 0.00 82 1020.5
20260903015107 56 314 0.0 1.0 0.00 0.00 0.00 82 1020.5
20260903014607 57 308 0.0 1.0 0.00 0.00 0.00 82 1020.5
20260903014107 57 281 0.0 1.0 0.00 0.00 0.00 81 1020.5
20260903013613 57 282 0.0 1.0 0.00 0.00 0.00 81 1020.5
20260903013110 57 288 0.0 1.0 0.00 0.00 0.00 81 1020.5
20260903012613 57 317 0.0 1.0 0.00 0.00 0.00 80 1020.5
20260903012107 58 269 0.0 1.0 0.00 0.00 0.00 79 1020.5
20260903011607 58 304 0.0 2.0 0.00 0.00 0.00 78 1020.5
20260903011110 58 281 0.0 2.0 0.00 0.00 0.00 78 1020.5
20260903010610 58 277 0.0 1.0 0.00 0.00 0.00 78 1020.5
20260903010108 59 267 0.0 2.0 0.00 0.00 0.00 78 1020.5
20260903005607 59 295 1.0 2.0 0.00 0.00 0.00 77 1020.5
20260903005110 59 296 1.0 1.0 0.00 0.00 0.00 77 1020.5
20260903004610 59 296 0.0 1.0 0.00 0.00 0.00 76 1020.5
20260903004107 59 280 0.0 1.0 0.00 0.00 0.00 76 1020.5
20260903003607 60 276 0.0 2.0 0.00 0.00 0.00 76 1020.5
20260903003113 60 313 0.0 1.0 0.00 0.00 0.00 76 1020.5
20260903002610 60 306 0.0 1.0 0.00 0.00 0.00 76 1020.5
20260903002107 60 283 0.0 1.0 0.00 0.00 0.00 75 1020.5
20260903001610 60 293 0.0 1.0 0.00 0.00 0.00 75 1020.5
20260903001107 60 274 0.0 1.0 0.00 0.00 0.00 74 1020.5
20260903000610 60 286 0.0 1.0 0.00 0.00 0.00 74 1020.5
20260903000113 60 286 0.0 1.0 0.00 0.00 0.00 74 1020.5
20260902235607 61 319 0.0 1.0 0.00 0.00 0.00 74 1020.5
20260902235107 61 283 1.0 1.0 0.00 0.00 0.00 73 1020.5
20260902234607 61 293 0.0 1.0 0.00 0.00 0.00 73 1020.5
20260902234113 61 306 0.0 2.0 0.00 0.00 0.00 72 1020.5
20260902233616 61 278 0.0 1.0 0.00 0.00 0.00 71 1020.5
20260902233113 61 315 0.0 1.0 0.00 0.00 0.00 71 1020.5
20260902232610 62 287 0.0 1.0 0.00 0.00 0.00 71 1020.5
20260902232107 62 311 0.0 1.0 0.00 0.00 0.00 70 1020.5
20260902231607 62 265 0.0 1.0 0.00 0.00 0.00 69 1020.5
20260902231107 62 252 0.0 1.0 0.00 0.00 0.00 69 1020.5
20260902230613 62 212 0.0 1.0 0.00 0.00 0.00 68 1020.5
20260902230110 62 310 0.0 1.0 0.00 0.00 0.00 68 1020.5
20260902225610 62 312 0.0 1.0 0.00 0.00 0.00 67 1020.5
20260902225111 62 276 0.0 1.0 0.00 0.00 0.00 67 1020.5
20260902224610 62 319 0.0 1.0 0.00 0.00 0.00 67 1020.5
20260902224116 62 288 0.0 1.0 0.00 0.00 0.00 67 1020.5
20260902223607 62 260 0.0 1.0 0.00 0.00 0.00 68 1020.5
20260902223107 62 253 0.0 1.0 0.00 0.00 0.00 68 1020.5
20260902222607 62 272 0.0 1.0 0.00 0.00 0.00 67 1020.5
20260902222107 62 269 0.0 1.0 0.00 0.00 0.00 67 1020.5
20260902221610 62 230 0.0 1.0 0.00 0.00 0.00 67 1020.5
20260902221113 62 304 0.0 1.0 0.00 0.00 0.00 67 1020.5
20260902220613 62 292 0.0 1.0 0.00 0.00 0.00 67 1020.5
20260902220113 62 280 0.0 1.0 0.00 0.00 0.00 67 1020.5
20260902215610 62 308 0.0 1.0 0.00 0.00 0.00 66 1020.5
20260902215107 62 204 0.0 1.0 0.00 0.00 0.00 68 1020.5
20260902214607 62 320 0.0 2.0 0.00 0.00 0.00 68 1020.5
20260902214107 62 310 1.0 2.0 0.00 0.00 0.00 69 1020.5
20260902213613 62 313 0.0 2.0 0.00 0.00 0.00 68 1020.5
20260902213113 62 307 0.0 1.0 0.00 0.00 0.00 69 1020.5
20260902212613 63 290 0.0 1.0 0.00 0.00 0.00 67 1020.5
20260902212107 63 261 0.0 1.0 0.00 0.00 0.00 67 1020.5
20260902211610 63 294 1.0 2.0 0.00 0.00 0.00 66 1020.5
20260902211110 63 248 1.0 2.0 0.00 0.00 0.00 66 1020.5
20260902210607 63 174 0.0 1.0 0.00 0.00 0.00 66 1020.2
20260902210113 63 214 0.0 2.0 0.00 0.00 0.00 66 1020.2
20260902205616 63 196 0.0 1.0 0.00 0.00 0.00 66 1020.2
20260902205110 63 197 0.0 1.0 0.00 0.00 0.00 66 1020.2
20260902204613 63 205 0.0 2.0 0.00 0.00 0.00 65 1020.2
20260902204107 63 270 1.0 1.0 0.00 0.00 0.00 65 1020.2
20260902203607 63 287 0.0 1.0 0.00 0.00 0.00 65 1020.2
20260902203107 64 332 0.0 1.0 0.00 0.00 0.00 65 1020.2
20260902202607 64 202 0.0 1.0 0.00 0.00 0.00 64 1020.2
20260902202110 64 196 0.0 2.0 0.00 0.00 0.00 64 1020.2
20260902201607 64 200 1.0 2.0 0.00 0.00 0.00 64 1020.2
20260902201113 64 160 0.0 1.0 0.00 0.00 0.00 66 1020.2
20260902200610 64 220 0.0 0.0 0.00 0.00 0.00 66 1020.2
20260902200110 64 227 0.0 1.0 0.00 0.00 0.00 66 1020.2
20260902195607 64 292 0.0 1.0 0.00 0.00 0.00 65 1020.2
20260902195107 65 307 0.0 1.0 0.00 0.00 0.00 64 1020.2
20260902194614 65 217 0.0 1.0 0.00 0.00 0.00 63 1020.2
20260902194107 65 303 0.0 1.0 0.00 0.00 0.00 62 1020.2
20260902193610 65 314 0.0 1.0 0.00 0.00 0.00 61 1020.2
20260902193107 66 297 0.0 1.0 0.00 0.00 0.00 61 1020.2
20260902192616 66 299 1.0 1.0 0.00 0.00 0.00 61 1020.2
20260902192107 66 300 0.0 1.0 0.00 0.00 0.00 60 1019.8
20260902191607 66 287 0.0 1.0 0.00 0.00 0.00 60 1019.8
20260902191110 67 315 0.0 1.0 0.00 0.00 0.00 59 1019.8
20260902190607 67 269 0.0 1.0 0.00 0.00 0.00 58 1019.8
20260902190107 67 282 0.0 1.0 0.00 0.00 0.00 58 1019.8
20260902185607 67 281 0.0 1.0 0.00 0.00 0.00 57 1019.8
20260902185108 68 305 0.0 2.0 0.00 0.00 0.00 56 1019.8
20260902184607 68 304 1.0 2.0 0.00 0.00 0.00 55 1019.8
20260902184107 69 307 1.0 2.0 0.00 0.00 0.00 54 1019.5
20260902183612 69 304 1.0 3.0 0.00 0.00 0.00 52 1019.5
20260902183107 69 306 1.0 4.0 0.00 0.00 0.00 52 1019.5
20260902182613 69 289 1.0 4.0 0.00 0.00 0.00 52 1019.5
20260902182110 70 284 1.0 3.0 0.00 0.00 0.00 52 1019.5
20260902181608 70 258 1.0 4.0 0.00 0.00 0.00 51 1019.5
20260902181110 70 258 1.0 4.0 0.00 0.00 0.00 51 1019.5
20260902180607 70 267 1.0 6.0 0.00 0.00 0.00 51 1019.5
20260902180113 71 304 1.0 5.0 0.00 0.00 0.00 51 1019.2
20260902175607 71 234 2.0 4.0 0.00 0.00 0.00 50 1019.2
20260902175110 71 270 1.0 3.0 0.00 0.00 0.00 51 1019.2
20260902174611 71 283 1.0 5.0 0.00 0.00 0.00 50 1019.2
20260902174107 72 287 1.0 5.0 0.00 0.00 0.00 49 1019.2
20260902173607 72 260 1.0 5.0 0.00 0.00 0.00 49 1019.2
20260902173110 72 282 1.0 8.0 0.00 0.00 0.00 49 1019.2
20260902172607 72 305 3.0 6.0 0.00 0.00 0.00 48 1019.2
20260902172107 73 300 1.0 6.0 0.00 0.00 0.00 49 1019.2
20260902171610 73 295 2.0 6.0 0.00 0.00 0.00 49 1019.2
20260902171107 73 295 2.0 5.0 0.00 0.00 0.00 48 1018.8
20260902170607 73 316 2.0 6.0 0.00 0.00 0.00 48 1019.2
20260902170107 73 309 2.0 4.0 0.00 0.00 0.00 47 1019.2
20260902165607 73 312 1.0 5.0 0.00 0.00 0.00 47 1019.2
20260902165107 73 312 3.0 7.0 0.00 0.00 0.00 47 1019.2
20260902164610 74 301 2.0 5.0 0.00 0.00 0.00 46 1019.2
20260902164110 74 294 2.0 5.0 0.00 0.00 0.00 46 1019.2
20260902163613 74 311 1.0 3.0 0.00 0.00 0.00 46 1018.8
20260902163110 73 308 1.0 4.0 0.00 0.00 0.00 46 1018.8
20260902162610 74 310 1.0 7.0 0.00 0.00 0.00 45 1018.8
20260902162108 74 273 3.0 7.0 0.00 0.00 0.00 45 1019.2
20260902161610 74 318 1.0 7.0 0.00 0.00 0.00 45 1019.2
20260902161113 74 311 4.0 7.0 0.00 0.00 0.00 44 1019.2
20260902160607 74 262 3.0 7.0 0.00 0.00 0.00 43 1019.2
20260902160107 75 305 3.0 7.0 0.00 0.00 0.00 43 1019.2
20260902155607 75 282 1.0 7.0 0.00 0.00 0.00 43 1019.2
20260902155110 75 315 3.0 7.0 0.00 0.00 0.00 42 1019.2
20260902154613 76 278 2.0 6.0 0.00 0.00 0.00 42 1019.2
20260902154107 76 259 1.0 5.0 0.00 0.00 0.00 42 1019.2
20260902153610 76 263 1.0 5.0 0.00 0.00 0.00 42 1019.2
20260902153107 76 287 2.0 6.0 0.00 0.00 0.00 42 1019.2
20260902152610 76 279 3.0 7.0 0.00 0.00 0.00 41 1019.2
20260902152113 76 287 2.0 7.0 0.00 0.00 0.00 41 1019.2
20260902151607 77 278 3.0 7.0 0.00 0.00 0.00 41 1019.2
20260902151107 76 291 3.0 6.0 0.00 0.00 0.00 40 1019.2
20260902150610 78 285 2.0 7.0 0.00 0.00 0.00 39 1019.2
20260902150113 78 292 1.0 4.0 0.00 0.00 0.00 39 1019.2
20260902145613 79 277 1.0 3.0 0.00 0.00 0.00 38 1019.2
20260902145107 80 244 0.0 5.0 0.00 0.00 0.00 39 1019.2
20260902144613 78 244 2.0 5.0 0.00 0.00 0.00 40 1019.2
20260902144116 77 309 1.0 7.0 0.00 0.00 0.00 40 1019.2
20260902143611 78 260 1.0 5.0 0.00 0.00 0.00 41 1019.2
20260902143107 78 329 2.0 7.0 0.00 0.00 0.00 41 1019.2
20260902142607 76 304 2.0 5.0 0.00 0.00 0.00 43 1019.2
20260902142107 77 318 3.0 7.0 0.00 0.00 0.00 42 1019.5
20260902141616 76 307 1.0 6.0 0.00 0.00 0.00 43 1019.5
20260902141107 76 314 1.0 8.0 0.00 0.00 0.00 43 1019.5
20260902140610 76 292 2.0 6.0 0.00 0.00 0.00 42 1019.5
20260902140107 76 265 2.0 7.0 0.00 0.00 0.00 41 1019.5
20260902135610 76 278 2.0 6.0 0.00 0.00 0.00 42 1019.5
20260902135108 76 242 2.0 6.0 0.00 0.00 0.00 40 1019.5
20260902134610 77 292 2.0 6.0 0.00 0.00 0.00 39 1019.5
20260902134107 77 197 1.0 7.0 0.00 0.00 0.00 39 1019.5
20260902133610 78 268 2.0 10.0 0.00 0.00 0.00 38 1019.5
20260902133107 78 234 1.0 8.0 0.00 0.00 0.00 39 1019.5
20260902132610 77 243 4.0 10.0 0.00 0.00 0.00 39 1019.5
20260902132107 78 284 2.0 8.0 0.00 0.00 0.00 37 1019.5
20260902131607 78 214 1.0 11.0 0.00 0.00 0.00 40 1019.5
20260902131107 78 244 1.0 8.0 0.00 0.00 0.00 40 1019.5
20260902130607 77 280 2.0 9.0 0.00 0.00 0.00 39 1019.5
20260902130107 78 229 4.0 11.0 0.00 0.00 0.00 38 1019.5
20260902125607 77 259 1.0 7.0 0.00 0.00 0.00 40 1019.5
20260902125110 78 309 3.0 9.0 0.00 0.00 0.00 37 1019.8
20260902124607 80 174 1.0 9.0 0.00 0.00 0.00 37 1019.5
20260902124110 79 231 2.0 6.0 0.00 0.00 0.00 37 1019.8
20260902123611 77 187 1.0 7.0 0.00 0.00 0.00 40 1019.8
20260902123110 78 191 4.0 7.0 0.00 0.00 0.00 38 1019.8
20260902122610 77 251 1.0 8.0 0.00 0.00 0.00 40 1019.8
20260902122107 76 225 2.0 11.0 0.00 0.00 0.00 40 1019.8
20260902121610 78 221 2.0 10.0 0.00 0.00 0.00 38 1019.8
20260902121113 78 182 6.0 10.0 0.00 0.00 0.00 38 1019.8
20260902120607 78 253 3.0 6.0 0.00 0.00 0.00 38 1019.8
20260902120110 77 192 2.0 9.0 0.00 0.00 0.00 40 1020.2
20260902115608 78 187 1.0 9.0 0.00 0.00 0.00 40 1020.2
20260902115110 76 278 4.0 9.0 0.00 0.00 0.00 40 1020.2
20260902114607 77 212 2.0 10.0 0.00 0.00 0.00 40 1020.2
20260902114107 77 255 5.0 9.0 0.00 0.00 0.00 39 1020.2
20260902113610 76 219 3.0 11.0 0.00 0.00 0.00 40 1020.5
20260902113113 76 252 5.0 11.0 0.00 0.00 0.00 40 1020.5
20260902112610 77 230 4.0 11.0 0.00 0.00 0.00 38 1020.5
20260902112107 76 222 3.0 8.0 0.00 0.00 0.00 39 1020.5
20260902111613 78 190 3.0 7.0 0.00 0.00 0.00 38 1020.5
20260902111107 78 223 1.0 6.0 0.00 0.00 0.00 39 1020.5
20260902110608 77 225 2.0 11.0 0.00 0.00 0.00 39 1020.5
20260902110107 77 195 1.0 9.0 0.00 0.00 0.00 40 1020.5
20260902105616 76 200 2.0 7.0 0.00 0.00 0.00 41 1020.5
20260902105111 76 207 1.0 6.0 0.00 0.00 0.00 42 1020.5
20260902104610 76 221 2.0 7.0 0.00 0.00 0.00 41 1020.5
20260902104107 77 179 2.0 7.0 0.00 0.00 0.00 40 1020.5
20260902103613 75 266 1.0 9.0 0.00 0.00 0.00 43 1020.9
20260902103110 76 274 3.0 7.0 0.00 0.00 0.00 43 1020.9
20260902102607 74 212 1.0 6.0 0.00 0.00 0.00 45 1020.9
20260902102107 74 187 2.0 11.0 0.00 0.00 0.00 47 1020.9
20260902101607 74 225 2.0 7.0 0.00 0.00 0.00 46 1020.9
20260902101107 74 235 3.0 6.0 0.00 0.00 0.00 45 1020.9
20260902100607 74 184 1.0 5.0 0.00 0.00 0.00 46 1020.9
20260902100107 74 156 2.0 5.0 0.00 0.00 0.00 45 1020.9
20260902095610 74 164 0.0 5.0 0.00 0.00 0.00 47 1020.9
20260902095107 74 229 1.0 5.0 0.00 0.00 0.00 46 1020.9
20260902094607 73 252 1.0 5.0 0.00 0.00 0.00 48 1020.9
20260902094113 73 179 2.0 4.0 0.00 0.00 0.00 47 1020.9
20260902093616 72 191 1.0 5.0 0.00 0.00 0.00 47 1020.9
20260902093107 74 162 1.0 5.0 0.00 0.00 0.00 47 1020.9
20260902092613 74 144 1.0 3.0 0.00 0.00 0.00 48 1020.9
20260902092113 71 136 1.0 4.0 0.00 0.00 0.00 52 1020.9
20260902091613 71 162 1.0 4.0 0.00 0.00 0.00 52 1021.3
20260902091107 71 186 2.0 4.0 0.00 0.00 0.00 51 1020.9
20260902090610 71 152 2.0 4.0 0.00 0.00 0.00 52 1020.9
20260902090110 71 0 0.0 3.0 0.00 0.00 0.00 53 1021.3
20260902085608 70 194 1.0 5.0 0.00 0.00 0.00 54 1021.3
20260902085110 69 174 0.0 5.0 0.00 0.00 0.00 54 1021.3
20260902084607 70 109 2.0 5.0 0.00 0.00 0.00 54 1021.3
20260902084107 69 104 1.0 3.0 0.00 0.00 0.00 55 1021.3
20260902083607 68 110 0.0 3.0 0.00 0.00 0.00 58 1021.3
20260902083107 68 158 1.0 4.0 0.00 0.00 0.00 58 1021.3
20260902082607 67 169 1.0 6.0 0.00 0.00 0.00 59 1020.9
20260902082107 67 197 2.0 4.0 0.00 0.00 0.00 59 1020.9
20260902081613 66 158 2.0 5.0 0.00 0.00 0.00 61 1021.3
20260902081116 65 182 1.0 4.0 0.00 0.00 0.00 62 1021.3
20260902080607 65 182 3.0 4.0 0.00 0.00 0.00 62 1021.3
20260902080111 65 192 3.0 4.0 0.00 0.00 0.00 62 1021.3
20260902075610 64 104 1.0 9.0 0.00 0.00 0.00 63 1020.9
20260902075107 64 95 4.0 9.0 0.00 0.00 0.00 62 1020.9
20260902074611 64 183 2.0 5.0 0.00 0.00 0.00 62 1020.9
20260902074116 64 173 1.0 4.0 0.00 0.00 0.00 63 1020.9
20260902073607 64 127 0.0 3.0 0.00 0.00 0.00 65 1020.9
20260902073114 64 107 2.0 3.0 0.00 0.00 0.00 64 1020.9
20260902072607 63 154 1.0 3.0 0.00 0.00 0.00 65 1020.9
20260902072113 62 130 1.0 4.0 0.00 0.00 0.00 67 1020.9
20260902071610 62 173 0.0 4.0 0.00 0.00 0.00 69 1020.9
20260902071110 62 85 1.0 4.0 0.00 0.00 0.00 69 1020.9
20260902070608 62 186 2.0 4.0 0.00 0.00 0.00 70 1020.9
20260902070111 61 149 2.0 4.0 0.00 0.00 0.00 70 1020.9